EW8078 Weather Reports


Display with metric or nautical units.
time (UTC)temp
F
wind
direction
speed
MPH
gust
MPH
rain 1hr
in
rain 24hr
in
rain mn
in
humidity
%
barometer
mb
20210917231544 73 360 3.0 5.0 0.00 0.00 0.00 38 1014.1
20210917230032 74 360 2.0 5.0 0.00 0.00 0.00 37 1014.0
20210917224521 73 360 1.0 6.0 0.00 0.00 0.00 39 1014.3
20210917223017 73 360 2.0 7.0 0.00 0.00 0.00 39 1014.3
20210917221517 72 360 1.0 6.0 0.00 0.00 0.00 38 1014.5
20210917220006 71 360 1.0 3.0 0.00 0.00 0.00 40 1014.6
20210917214502 69 360 1.0 4.0 0.00 0.00 0.00 41 1014.5
20210917213238 68 360 2.0 7.0 0.00 0.00 0.00 42 1014.5
20210917211628 67 360 1.0 5.0 0.00 0.00 0.00 44 1014.8
20210917210101 66 360 1.0 4.0 0.00 0.00 0.00 43 1014.7
20210917204622 65 360 2.0 5.0 0.00 0.00 0.00 45 1015.0
20210917203054 65 360 1.0 4.0 0.00 0.00 0.00 44 1015.2
20210917201552 65 360 1.0 5.0 0.00 0.00 0.00 46 1015.4
20210917200150 64 360 0.0 6.0 0.00 0.00 0.00 44 1015.4
20210917194554 64 360 2.0 6.0 0.00 0.00 0.00 46 1015.6
20210917193026 64 360 1.0 5.0 0.00 0.00 0.00 44 1015.7
20210917191517 64 360 1.0 5.0 0.00 0.00 0.00 44 1016.0
20210917190033 64 360 1.0 6.0 0.00 0.00 0.00 44 1016.1
20210917184507 64 360 1.0 6.0 0.00 0.00 0.00 47 1016.3
20210917183015 63 360 2.0 7.0 0.00 0.00 0.00 46 1016.4
20210917181605 64 360 1.0 4.0 0.00 0.00 0.00 44 1016.6
20210917180142 64 360 1.0 5.0 0.00 0.00 0.00 44 1016.8
20210917174612 64 360 1.0 6.0 0.00 0.00 0.00 46 1016.9
20210917173106 63 360 0.0 5.0 0.00 0.00 0.00 45 1017.0
20210917171606 62 360 1.0 3.0 0.00 0.00 0.00 49 1017.1
20210917170056 60 360 1.0 6.0 0.00 0.00 0.00 53 1017.1
20210917164533 57 360 2.0 5.0 0.00 0.00 0.00 54 1017.3
20210917163117 55 360 1.0 5.0 0.00 0.00 0.00 56 1017.4
20210917161524 54 360 0.0 2.0 0.00 0.00 0.00 59 1017.5
20210917160026 53 360 0.0 2.0 0.00 0.00 0.00 61 1017.3
20210917154535 52 360 1.0 5.0 0.00 0.00 0.00 61 1017.5
20210917153011 52 360 0.0 3.0 0.00 0.00 0.00 62 1017.3
20210917151506 51 360 1.0 4.0 0.00 0.00 0.00 64 1017.3
20210917150341 51 360 0.0 3.0 0.00 0.00 0.00 65 1017.3
20210917144621 51 360 1.0 4.0 0.00 0.00 0.00 67 1017.2
20210917143129 50 360 0.0 0.0 0.00 0.00 0.00 66 1017.2
20210917141631 50 360 0.0 0.0 0.00 0.00 0.00 67 1017.2
20210917140127 49 360 0.0 0.0 0.00 0.00 0.00 68 1017.0
20210917134547 49 360 0.0 0.0 0.00 0.00 0.00 68 1016.9
20210917133217 48 360 0.0 0.0 0.00 0.00 0.00 68 1016.9
20210917131532 48 360 0.0 0.0 0.00 0.00 0.00 68 1016.7
20210917130057 48 360 0.0 0.0 0.00 0.00 0.00 68 1016.5
20210917124618 48 360 0.0 0.0 0.00 0.00 0.00 68 1016.2
20210917123019 48 360 0.0 0.0 0.00 0.00 0.00 67 1016.3
20210917121511 49 360 0.0 0.0 0.00 0.00 0.00 67 1016.2
20210917120012 49 360 0.0 0.0 0.00 0.00 0.00 66 1016.2
20210917114511 50 360 0.0 0.0 0.00 0.00 0.00 64 1016.2
20210917113136 51 360 0.0 0.0 0.00 0.00 0.00 63 1016.2
20210917111605 51 360 0.0 0.0 0.00 0.00 0.00 61 1016.2
20210917110121 52 360 0.0 1.0 0.00 0.00 0.00 59 1016.4
20210917104638 53 360 0.0 2.0 0.00 0.00 0.00 58 1016.2
20210917103052 54 360 0.0 3.0 0.00 0.00 0.00 58 1015.8
20210917100033 55 360 0.0 4.0 0.00 0.00 0.00 57 1015.0
20210917094530 0 0.0 0.0 0.00 0.00 0.00 1014.6
20210917093034 -90 94 1.0 3.0 0.00 0.00 0.00 58 1014.0
20210917091536 57 85 0.0 2.0 0.00 0.00 0.00 58 1013.3
20210917090020 57 121 0.0 1.0 0.00 0.00 0.00 59 1012.9
20210917084535 58 124 0.0 1.0 0.00 0.00 0.00 56 1012.3
20210917083052 59 8 0.0 1.0 0.00 0.00 0.00 54 1012.0
20210917081504 60 33 0.0 3.0 0.00 0.00 0.00 53 1011.5
20210917080106 60 266 0.0 2.0 0.00 0.00 0.00 51 1011.3
20210917074627 61 327 0.0 7.0 0.00 0.00 0.00 49 1011.3
20210917073131 62 51 1.0 9.0 0.00 0.00 0.00 45 1011.0
20210917071708 64 287 2.0 7.0 0.00 0.00 0.00 42 1010.1
20210917070132 65 94 1.0 3.0 0.00 0.00 0.00 37 1009.0
20210917064625 66 134 0.0 3.0 0.00 0.00 0.00 36 1007.9
20210917063105 67 208 0.0 3.0 0.00 0.00 0.00 31 1007.3
20210917061614 68 131 0.0 8.0 0.00 0.00 0.00 27 1006.8
20210917060114 71 274 2.0 5.0 0.00 0.00 0.00 16 1005.0
20210917054627 70 261 1.0 4.0 0.00 0.00 0.00 18 1004.6
20210917053025 69 259 1.0 3.0 0.00 0.00 0.00 19 1004.3
20210917051542 69 244 0.0 2.0 0.00 0.00 0.00 19 1004.1
20210917044505 69 241 0.0 3.0 0.00 0.00 0.00 20 1003.4
20210917043152 67 243 0.0 2.0 0.00 0.00 0.00 22 1003.3
20210917041711 66 229 0.0 2.0 0.00 0.00 0.00 26 1003.3
20210917040140 66 251 0.0 0.0 0.00 0.00 0.00 29 1003.0
20210917034607 67 305 0.0 0.0 0.00 0.00 0.00 25 1002.8
20210917033107 68 241 0.0 1.0 0.00 0.00 0.00 25 1002.6
20210917031748 69 283 0.0 3.0 0.00 0.00 0.00 25 1002.3
20210917030055 68 242 0.0 2.0 0.00 0.00 0.00 23 1002.1
20210917024530 68 234 0.0 1.0 0.00 0.00 0.00 25 1001.8
20210917023028 70 231 0.0 2.0 0.00 0.00 0.00 24 1001.4
20210917021524 71 233 0.0 2.0 0.00 0.00 0.00 24 1001.1
20210917020049 71 259 0.0 3.0 0.00 0.00 0.00 22 1000.7
20210917014532 70 266 1.0 3.0 0.00 0.00 0.00 22 1000.5
20210917013018 72 236 0.0 2.0 0.00 0.00 0.00 24 1000.0
20210917011728 72 257 0.0 1.0 0.00 0.00 0.00 28 999.8
20210917010149 75 257 0.0 1.0 0.00 0.00 0.00 24 999.5
20210917004727 77 231 0.0 2.0 0.00 0.00 0.00 20 999.5
20210917003101 79 276 0.0 2.0 0.00 0.00 0.00 22 999.3
20210917001559 82 196 0.0 0.0 0.00 0.00 0.00 23 999.1
20210917000053 85 252 0.0 3.0 0.00 0.00 0.00 19 999.0
20210916234547 86 43 0.0 1.0 0.00 0.00 0.00 23 998.7
20210916233103 87 322 0.0 1.0 0.00 0.00 0.00 15 998.6